Doylestown, PA

12:22 PM EDT on October 21, 2017 (GMT -0400)
Doylestown

Weather History for KDYL - December, 2012

Change the Weather History Date:

Tuesday, December 25, 2012

  Actual Average (KTTN) Record (KTTN)
Temperature  
Mean Temperature 34 °F -  
Max Temperature 37 °F 38 °F 69 °F (1889)
Min Temperature 28 °F 24 °F -2 °F (1983)
Degree Days  
Heating Degree Days 32    
Moisture  
Dew Point 29 °F    
Average Humidity 86    
Maximum Humidity 100    
Minimum Humidity 69    
Precipitation  
Precipitation 0.18 in - - ()
Sea Level Pressure  
Sea Level Pressure 30.08 in    
Wind  
Wind Speed 5 mph (NNW)    
Max Wind Speed 10 mph    
Max Gust Speed 21 mph    
Visibility 9 miles    
Events      
Averages and records for this station are not official NWS values.
T = Trace of Precipitation, MM = Missing Value Source: NWS Daily Summary

Daily Weather History Graph

Daily Weather History Graph

Search for Another Location

Airport or City:

Trip Planner

Search our weather history database for the weather conditions in past years. The results will help you decide how hot, cold, wet, or windy it might be!

Date:

Astronomy

Dec. 25, 2012 Rise Set
Actual Time 7:21 AM EST 4:40 PM EST
Civil Twilight 6:51 AM EST 5:10 PM EST
Nautical Twilight 6:16 AM EST 5:45 PM EST
Astronomical Twilight 5:43 AM EST 6:18 PM EST
Moon 2:46 PM EST (12/25) 4:51 AM EST (12/25)
Length of Visible Light 10h 19m
Length of Day
9h 18m
Waxing Gibbous, 93% of the Moon is Illuminated
Dec 25
Waxing Gibbous
Dec 28
Full
Jan 4
Last Quarter
Jan 11
New
Jan 18
First Quarter

Hourly Weather History & Observations

Time (EST) Temp. Windchill Dew Point Humidity Pressure Visibility Wind Dir Wind Speed Gust Speed Precip Events Conditions
12:46 AM 32.0 °F 28.7 °F 32.0 °F 100% 29.89 in 4.0 mi Variable 3.5 mph - 0.00 in   Overcast
12:54 AM 32.0 °F 27.5 °F 32.0 °F 100% 29.91 in 4.0 mi Variable 4.6 mph - 0.00 in   Overcast
1:54 AM 32.0 °F 27.5 °F 32.0 °F 100% 29.91 in 3.0 mi NNE 4.6 mph - N/A   Overcast
2:54 AM 32.0 °F - 32.0 °F 100% 29.93 in 3.0 mi Calm Calm - 0.01 in   Overcast
3:54 AM 33.1 °F 30.0 °F 32.0 °F 96% 29.93 in 4.0 mi North 3.5 mph - 0.01 in   Overcast
4:54 AM 33.1 °F 30.0 °F 32.0 °F 96% 29.95 in 6.0 mi NW 3.5 mph - 0.05 in   Overcast
5:54 AM 33.1 °F 30.0 °F 32.0 °F 96% 29.98 in 7.0 mi NW 3.5 mph - 0.02 in   Overcast
6:32 AM 32.0 °F 24.8 °F 32.0 °F 100% 29.97 in 8.0 mi NW 8.1 mph - N/A   Overcast
6:54 AM 32.0 °F 25.6 °F 32.0 °F 100% 30.01 in 10.0 mi NW 6.9 mph - N/A   Overcast
7:06 AM 32.0 °F 25.6 °F 32.0 °F 100% 29.99 in 10.0 mi NW 6.9 mph - 0.01 in   Overcast
7:54 AM 32.0 °F 26.4 °F 30.9 °F 96% 30.04 in 8.0 mi NW 5.8 mph - 0.01 in   Overcast
8:19 AM 32.0 °F 27.5 °F 30.2 °F 93% 30.02 in 8.0 mi WNW 4.6 mph - N/A   Scattered Clouds
8:54 AM 33.1 °F 30.0 °F 32.0 °F 96% 30.06 in 10.0 mi West 3.5 mph - N/A   Clear
9:16 AM 33.8 °F 27.7 °F 32.0 °F 93% 30.05 in 10.0 mi WNW 6.9 mph - N/A   Partly Cloudy
9:54 AM 35.1 °F 29.3 °F 32.0 °F 89% 30.10 in 10.0 mi WNW 6.9 mph - 0.03 in   Clear
10:25 AM 35.6 °F 28.6 °F 32.0 °F 87% 30.08 in 10.0 mi NW 9.2 mph - 0.04 in   Mostly Cloudy
10:54 AM 36.0 °F 29.0 °F 30.9 °F 82% 30.11 in 10.0 mi NNW 9.2 mph 19.6 mph 0.05 in   Overcast
11:34 AM 35.6 °F 28.6 °F 30.2 °F 81% 30.07 in 10.0 mi NNW 9.2 mph 17.3 mph N/A   Overcast
11:54 AM 36.0 °F 29.0 °F 32.0 °F 86% 30.08 in 10.0 mi NNW 9.2 mph - N/A   Overcast
12:54 PM 37.0 °F 30.4 °F 30.9 °F 79% 30.12 in 10.0 mi WNW 9.2 mph - N/A   Overcast
1:54 PM 37.0 °F 29.8 °F 30.0 °F 76% 30.11 in 10.0 mi NNW 10.4 mph 20.7 mph N/A   Overcast
2:54 PM 37.9 °F 32.1 °F 30.0 °F 73% 30.12 in 10.0 mi NNW 8.1 mph - N/A   Overcast
3:54 PM 37.0 °F 31.6 °F 28.0 °F 70% 30.14 in 10.0 mi North 6.9 mph - N/A   Overcast
4:54 PM 35.1 °F 28.6 °F 27.0 °F 72% 30.15 in 10.0 mi NNW 8.1 mph - N/A   Mostly Cloudy
5:54 PM 34.0 °F 27.2 °F 26.1 °F 73% 30.20 in 10.0 mi NW 8.1 mph - N/A   Overcast
6:54 PM 33.1 °F 26.9 °F 25.0 °F 72% 30.22 in 10.0 mi North 6.9 mph - N/A   Overcast
7:54 PM 33.1 °F 28.7 °F 24.1 °F 70% 30.23 in 10.0 mi North 4.6 mph - N/A   Overcast
8:54 PM 32.0 °F 25.6 °F 24.1 °F 73% 30.25 in 10.0 mi North 6.9 mph - N/A   Overcast
9:54 PM 32.0 °F 25.6 °F 24.1 °F 73% 30.26 in 10.0 mi NNE 6.9 mph - N/A   Overcast
10:54 PM 32.0 °F 26.4 °F 23.0 °F 69% 30.27 in 10.0 mi North 5.8 mph - N/A   Overcast
11:29 PM 30.2 °F 26.7 °F 23.0 °F 75% 30.24 in 10.0 mi NNE 3.5 mph - N/A   Scattered Clouds
11:54 PM 28.9 °F - 23.0 °F 78% 30.26 in 10.0 mi Calm Calm - N/A   Clear